Regional Weather Roundup
Issued by NWS Nashville, TN

Current Version | Previous Version | Text Only | Print | Product List | Glossary On
Versions: 1 2 3 4 5 6 7 8 9 10 11 12 13 14 15 16 17 18 19 20 21 22 23 24 25 26 27
000
ASUS44 KOHX 212010
RWROHX
MIDDLE TENNESSEE HOURLY WEATHER ROUNDUP
NATIONAL WEATHER SERVICE NASHVILLE TN
300 PM CDT THU SEP 21 2017

NOTE: "FAIR" INDICATES FEW OR NO CLOUDS BELOW 12,000 FEET WITH
NO SIGNIFICANT WEATHER AND/OR OBSTRUCTIONS TO VISIBILITY.

* THESE REPORTS ARE NOT UNDER NWS QUALITY CONTROL AND MAY NOT
  REPORT WEATHER SUCH AS PRECIPITATION AND FOG.


TNZ005>011-023>034-057-059-062>066-078-080-212100
...NORTHERN MIDDLE TENNESSEE...

CITY           SKY/WX    TMP DP  RH WIND       PRES   REMARKS
CLARKSVILLE    MOSUNNY   89  68  49 S6        30.03F HX  93
CROSSVILLE     MOSUNNY   79  66  64 E8        30.11F
GALLATIN       MOSUNNY   91  70  49 CALM      30.05F HX  97
DICKSON        SUNNY     83  71  66 E3        30.05F
LEBANON        SUNNY     88  67  49 E6        30.03F HX  91
NASHVILLE      MOSUNNY   91  66  43 CALM      30.04F HX  93
PORTLAND       SUNNY     88  68  51 VRB5      30.04F HX  91
SMYRNA         CLOUDY    84  70  61 CALM      30.06S
SPARTA         SUNNY     86  70  58 SW5       30.05F HX  90
SPRINGFIELD    SUNNY     86  73  66 S7        30.02F HX  93
WEST NASHVILLE SUNNY     88  68  51 VRB7      30.02F HX  91
$$
TNZ056-058-060-061-075>077-079-093>097-212100
...SOUTHERN MIDDLE TENNESSEE...

CITY           SKY/WX    TMP DP  RH WIND       PRES   REMARKS
COLUMBIA       SUNNY     82 N/A N/A CALM      30.03F
FAYETTEVILLE   SUNNY     84  72  65 VRB6      30.05F
MCMINNVILLE    SUNNY     88  72  58 NE9       30.06F HX  94
PULASKI        PTSUNNY   75  72  88 CALM      30.05F
SHELBYVILLE    SUNNY     82  72  69 CALM      30.05F
TULLAHOMA      PTSUNNY   84  66  54 VRB6      30.07F
WINCHESTER     SUNNY     86  70  58 CALM      30.06F HX  90
$$


...KEY TO REMARKS...
VSB - VISIBILITY IN MILES
WCI - WIND CHILL INDEX
HX  - HEAT INDEX





USA.gov is the U.S. government's official web portal to all federal, state and local government web resources and services.